7 * 24
多渠道服务支持
STARLINK-11470是美国SpaceX公司星链星座的一员,于北京时间2024年11月24日发射,运行在低地球轨道。作为第二代星链卫星,它配备增强型相控阵天线与激光星间链路,可提供高速低延迟宽带服务,助力星链实现全球覆盖,尤其为基础设施匮乏地区提供网络接入,也进一步扩充了星链星座的网络容量与服务能力。
美国
(US)
| 数据来源 | 国际轨道数据 |
| 星历时间: | 2026-09-11T07:16:34+0800 11小时前 查看轨道信息 |
| 半长轴: | 6737.616km |
| 偏心率: | 0.0002921 |
| 轨道倾角: | 53.160° |
| 近地点辐角 | 307.288° |
| 升交点赤经 | 237.907° |
| 平近点角 | 52.787° |
| 近地点: | 357.51km |
| 远地点: | 361.448km |
| 周期: | 91.732分钟 |
| 每日圈数: | 15.697969 |